Weather History for Rifle, CO

Change the Weather History Date:

Thursday, January 3, 2013

  Actual Average Record
Temperature  
Mean Temperature 6 °F 23 °F  
Max Temperature 21 °F 35 °F 53 °F (1918)
Min Temperature -9 °F 11 °F -14 °F (1952)
Degree Days  
Heating Degree Days 59 42  
Month to date heating degree days 126  
Since 1 July heating degree days 2890  
Cooling Degree Days 0 0  
Month to date cooling degree days 0  
Year to date cooling degree days 0  
Moisture  
Dew Point -5 °F    
Average Humidity 68    
Maximum Humidity 87    
Minimum Humidity 42    
Precipitation  
Precipitation 0.00 in 0.04 in 0.37 in (1940)
Month to date precipitation 0.10  
Year to date precipitation 0.10  
Sea Level Pressure  
Sea Level Pressure 30.66 in    
Wind  
Wind Speed 2 mph (ESE)    
Max Wind Speed 7 mph    
Max Gust Speed -    
Visibility 10 miles    
Events      
T = Trace of Precipitation, MM = Missing Value Source: NWS Daily Summary

Daily Weather History Graph

Daily Weather History Graph

Search for Another Location

Airport:

Trip Planner

Search our weather history database for the weather conditions in past years. The results will help you decide how hot, cold, wet, or windy it might be!

Date:

Astronomy

Jan. 03, 2013 Rise Set
Actual Time 7:31 AM MST 4:59 PM MST
Civil Twilight 7:01 AM MST 5:29 PM MST
Nautical Twilight 6:27 AM MST 6:03 PM MST
Astronomical Twilight 5:55 AM MST 6:36 PM MST
Moon 11:36 PM MST (1/3) 10:46 AM MST (1/3)
Length of Visible Light 10h 28m
Length of Day
9h 28m
Waning Gibbous, 65% of the Moon is Illuminated
Jan 3
Waning Gibbous
Jan 4
Last Quarter
Jan 11
New
Jan 18
First Quarter
Jan 26
Full

Hourly Weather History & Observations

Time (MST) Temp. Windchill Dew Point Humidity Pressure Visibility Wind Dir Wind Speed Gust Speed Precip Events Conditions
12:53 AM -0.9 °F - -7.1 °F 75% 30.59 in 10.0 mi Calm Calm - N/A   Clear
1:53 AM -2.9 °F -13.3 °F -8.0 °F 79% 30.60 in 10.0 mi ESE 4.6 mph - N/A   Clear
2:53 AM -2.0 °F - -8.0 °F 76% 30.61 in 10.0 mi Calm Calm - N/A   Clear
3:53 AM -4.0 °F -14.6 °F -9.0 °F 79% 30.62 in 10.0 mi SE 4.6 mph - N/A   Clear
4:53 AM -4.0 °F -16.3 °F -9.0 °F 79% 30.65 in 10.0 mi ESE 5.8 mph - N/A   Clear
5:53 AM -5.1 °F -19.1 °F -11.9 °F 72% 30.70 in 10.0 mi East 6.9 mph - N/A   Clear
6:53 AM -6.0 °F -14.7 °F -9.9 °F 83% 30.71 in 10.0 mi SSW 3.5 mph - N/A   Clear
7:53 AM -9.0 °F -22.3 °F -14.1 °F 79% 30.77 in 10.0 mi ESE 5.8 mph - N/A   Clear
8:53 AM -2.9 °F - -6.0 °F 87% 30.76 in 10.0 mi Calm Calm - N/A   Clear
9:53 AM 3.9 °F - -2.9 °F 73% 30.74 in 10.0 mi Calm Calm - N/A   Clear
10:53 AM 8.1 °F - 1.0 °F 73% 30.71 in 10.0 mi Calm Calm - N/A   Clear
11:53 AM 12.9 °F - -0.0 °F 56% 30.67 in 10.0 mi Calm Calm - N/A   Clear
12:53 PM 16.0 °F - 1.9 °F 54% 30.62 in 10.0 mi Calm Calm - N/A   Clear
1:53 PM 19.9 °F - 3.0 °F 48% 30.58 in 10.0 mi Calm Calm - N/A   Clear
2:53 PM 21.0 °F - 1.9 °F 44% 30.57 in 10.0 mi Calm Calm - N/A   Clear
3:53 PM 21.9 °F - 1.9 °F 42% 30.58 in 10.0 mi Calm Calm - N/A   Clear
5:53 PM 8.1 °F - -2.0 °F 64% 30.66 in 10.0 mi Calm Calm - N/A   Clear
6:53 PM 8.1 °F - -2.9 °F 61% 30.68 in 10.0 mi Calm Calm - N/A   Clear
7:53 PM 6.1 °F -0.9 °F -4.0 °F 63% 30.71 in 10.0 mi East 3.5 mph - N/A   Clear
8:53 PM 8.1 °F - -2.9 °F 61% 30.67 in 10.0 mi Calm Calm - N/A   Clear
9:53 PM 3.0 °F -8.0 °F -5.1 °F 69% 30.66 in 10.0 mi ESE 5.8 mph - N/A   Clear
10:53 PM 3.0 °F -6.4 °F -5.1 °F 69% 30.64 in 10.0 mi SSE 4.6 mph - N/A   Clear
11:53 PM -0.0 °F - -7.1 °F 72% 30.63 in 10.0 mi Calm Calm - N/A   Clear